EW1970 Weather Reports


time (UTC)temp
C
wind
direction
speed
KPH
gust
KPH
rain 1hr
cm
rain 24hr
cm
rain mn
cm
humidity
%
barometer
mb
20260509093012 21 102 0.0 0.0 0.00 0.00 0.00 93 1010.9
20260509091519 21 102 0.0 0.0 0.00 0.00 0.00 93 1010.9
20260509090022 21 102 0.0 0.0 0.00 0.00 0.00 92 1010.8
20260509084507 21 102 0.0 1.6 0.00 0.00 0.00 92 1011.0
20260509083020 22 102 0.0 0.0 0.00 0.00 0.00 92 1011.3
20260509081518 21 102 0.0 0.0 0.00 0.00 0.00 92 1011.2
20260509080033 22 102 0.0 0.0 0.00 0.00 0.00 92 1011.3
20260509074526 22 102 0.0 1.6 0.00 0.00 0.00 91 1011.5
20260509073010 22 146 0.0 0.0 0.00 0.00 0.00 91 1011.6
20260509071513 22 146 0.0 3.2 0.00 0.00 0.00 91 1011.8
20260509070019 22 275 0.0 3.2 0.00 0.00 0.00 91 1011.8
20260509064526 22 197 0.0 4.8 0.00 0.00 0.00 90 1011.4
20260509063027 22 122 0.0 9.7 0.00 0.00 0.00 90 1011.6
20260509061530 22 132 0.0 3.2 0.00 0.00 0.00 90 1011.2
20260509060017 22 108 0.0 6.4 0.00 0.00 0.00 90 1011.0
20260509054523 22 118 1.6 9.7 0.00 0.00 0.00 90 1011.2
20260509053030 22 126 0.0 4.8 0.00 0.00 0.00 90 1010.4
20260509051527 22 263 1.6 6.4 0.00 0.00 0.00 89 1010.2
20260509050016 22 127 1.6 4.8 0.00 0.00 0.00 89 1010.1
20260509044519 22 103 0.0 6.4 0.00 0.00 0.00 88 1010.3
20260509043022 22 140 0.0 3.2 0.00 0.00 0.00 88 1010.5
20260509041529 22 133 0.0 3.2 0.00 0.00 0.00 88 1010.7
20260509040028 22 145 0.0 3.2 0.00 0.00 0.00 88 1010.8
20260509034518 22 145 0.0 3.2 0.00 0.00 0.00 89 1010.7
20260509033003 22 121 0.0 1.6 0.00 0.00 0.00 89 1010.4
20260509031504 22 134 0.0 3.2 0.00 0.00 0.00 88 1010.3
20260509030014 22 150 0.0 3.2 0.00 0.00 0.00 88 1010.1
20260509024514 22 83 0.0 0.0 0.00 0.00 0.00 88 1010.1
20260509023007 22 28 0.0 3.2 0.00 0.00 0.00 87 1010.0
20260509021506 22 126 0.0 9.7 0.00 0.00 0.00 86 1009.9
20260509020011 23 147 1.6 9.7 0.00 0.00 0.00 86 1009.5
20260509014513 23 107 0.0 11.3 0.00 0.00 0.00 85 1009.5
20260509013019 23 149 0.0 4.8 0.00 0.00 0.00 84 1009.4
20260509011504 23 64 0.0 4.8 0.00 0.00 0.00 83 1009.5
20260509010005 23 131 1.6 8.0 0.00 0.00 0.00 83 1009.5
20260509004521 23 238 0.0 3.2 0.00 0.00 0.00 83 1009.4
20260509003028 23 134 0.0 4.8 0.00 0.00 0.00 83 1009.4
20260509001521 23 154 0.0 4.8 0.00 0.00 0.00 83 1009.5
20260509000005 24 59 0.0 3.2 0.00 0.00 0.00 82 1009.5
20260508234510 24 84 0.0 8.0 0.00 0.00 0.00 82 1009.6
20260508233015 24 78 0.0 4.8 0.00 0.00 0.00 82 1009.4
20260508231520 24 46 0.0 3.2 0.00 0.00 0.00 82 1009.4
20260508230023 24 55 0.0 4.8 0.00 0.00 0.00 82 1009.4
20260508224508 24 303 0.0 3.2 0.00 0.00 0.00 82 1009.6
20260508223012 25 36 0.0 3.2 0.00 0.00 0.00 80 1009.5
20260508221517 25 322 1.6 11.3 0.00 0.00 0.00 79 1009.6
20260508220026 25 191 1.6 4.8 0.00 0.00 0.00 79 1009.6
20260508214526 25 5 0.0 3.2 0.00 0.00 0.00 79 1009.8
20260508213020 25 44 0.0 6.4 0.00 0.00 0.00 77 1009.9
20260508211518 26 232 0.0 6.4 0.00 0.00 0.00 76 1010.1
20260508210020 25 13 0.0 3.2 0.00 0.00 0.00 77 1010.4
20260508204531 25 93 1.6 6.4 0.00 0.00 0.00 74 1010.7
20260508203026 26 320 0.0 3.2 0.00 0.00 0.00 73 1010.8
20260508201518 26 113 1.6 8.0 0.00 0.00 0.00 76 1010.8
20260508200022 23 188 0.0 3.2 0.00 0.00 0.00 78 1011.3
20260508194533 23 159 0.0 6.4 0.00 0.00 0.00 80 1011.4
20260508193028 23 95 0.0 3.2 0.00 0.00 0.00 77 1011.5
20260508191528 25 360 0.0 4.8 0.00 0.00 0.00 72 1011.5
20260508190014 24 109 1.6 4.8 0.00 0.00 0.00 77 1011.6
20260508184524 24 340 1.6 3.2 0.00 0.00 0.00 75 1011.7
20260508183004 25 165 0.0 4.8 0.00 0.00 0.00 71 1012.1
20260508181504 23 78 0.0 4.8 0.00 0.00 0.00 74 1012.4
20260508180006 23 32 0.0 3.2 0.00 0.00 0.00 73 1012.5
20260508174505 22 120 0.0 4.8 0.00 0.00 0.00 75 1012.7
20260508173005 22 338 0.0 8.0 0.00 0.00 0.00 76 1012.8
20260508171511 21 13 0.0 6.4 0.00 0.00 0.00 79 1012.9
20260508170006 20 155 0.0 4.8 0.00 0.00 0.00 82 1013.0
20260508164505 20 81 0.0 3.2 0.00 0.00 0.00 81 1013.4
20260508163012 20 347 0.0 3.2 0.00 0.00 0.00 82 1013.6
20260508161504 19 299 0.0 3.2 0.00 0.00 0.00 80 1013.7
20260508160010 20 291 0.0 3.2 0.00 0.00 0.00 79 1013.9
20260508154508 18 56 0.0 3.2 0.00 0.00 0.00 81 1014.1
20260508153005 19 199 0.0 3.2 0.00 0.00 0.00 82 1014.1
20260508151507 18 337 0.0 3.2 0.00 0.00 0.00 83 1014.3
20260508150018 18 205 0.0 3.2 0.00 0.00 0.00 83 1014.2
20260508144511 18 97 0.0 3.2 0.00 0.00 0.00 83 1014.1
20260508143018 18 21 0.0 3.2 0.00 0.00 0.00 81 1014.2
20260508141512 17 104 0.0 4.8 0.00 0.00 0.00 84 1014.2
20260508140012 17 144 0.0 3.2 0.00 0.00 0.00 84 1014.3
20260508134514 16 150 0.0 3.2 0.00 0.00 0.00 84 1014.4
20260508133015 16 79 0.0 3.2 0.00 0.00 0.00 84 1014.2
20260508131512 16 78 0.0 0.0 0.00 0.00 0.00 85 1014.7
20260508130011 16 78 0.0 0.0 0.00 0.00 0.00 84 1014.5
20260508124514 16 78 0.0 3.2 0.00 0.00 0.00 83 1014.4
20260508123016 16 111 0.0 0.0 0.00 0.00 0.00 84 1014.6
20260508121516 16 111 0.0 0.0 0.00 0.00 0.00 84 1014.7
20260508120017 16 111 0.0 0.0 0.00 0.00 0.00 84 1014.7
20260508114517 16 327 0.0 3.2 0.00 0.00 0.00 84 1015.2
20260508113019 16 242 0.0 1.6 0.00 0.00 0.00 84 1015.4
20260508111520 16 49 0.0 3.2 0.00 0.00 0.00 84 1015.2
20260508110020 16 58 0.0 3.2 0.00 0.00 0.00 84 1014.8
20260508104522 16 306 0.0 3.2 0.00 0.00 0.00 84 1014.8
20260508103020 15 287 0.0 3.2 0.00 0.00 0.00 85 1014.6
20260508101521 15 326 0.0 3.2 0.00 0.00 0.00 85 1015.3
20260508100024 16 266 0.0 3.2 0.00 0.00 0.00 84 1015.4
20260508094521 16 345 0.0 3.2 0.00 0.00 0.00 84 1015.5